Wind_Speed
44 40 36 33 30 26 18 9 4 9 15 7 3 7 4 6 8 5 3 4 3 5 6 4 4 3 2 3 1 1 2 3 5 3 3 3 2 2 4 4 2 1 3 3
36 44 40 37 36 32 26 9 7 11 19 6 7 3 3 7 7 6 7 7 4 2 6 4 4 5 4 5 2 0 3 2 5 4 5 3 3 1 1 2 2 2 3 4
40 33 43 42 40 36 29 12 6 6 13 7 8 8 6 7 6 6 5 5 6 4 5 4 5 5 4 4 2 1 4 3 6 7 7 4 8 5 8 5 4 3 3 5
19 23 44 40 45 41 36 20 9 12 7 12 11 11 10 12 8 4 8 3 7 7 5 4 5 5 4 3 2 2 3 4 4 10 15 14 15 15 11 11 9 5 3 4
27 21 28 50 50 48 43 17 10 9 12 10 20 13 12 15 8 12 8 7 13 10 6 7 7 7 5 3 5 4 2 1 3 6 4 4 9 12 11 11 10 12 10 8
31 29 21 18 53 54 25 35 30 17 14 10 12 16 19 15 13 11 8 16 7 12 14 6 6 1 4 5 5 6 3 2 3 3 4 13 9 4 10 6 7 5 4 3
30 29 32 28 45 55 38 28 23 17 7 12 12 14 22 17 21 13 9 11 12 7 9 11 9 7 4 4 3 3 4 3 2 5 9 3 3 3 1 7 7 10 3 6
29 28 31 30 31 65 63 46 35 21 11 16 9 15 13 17 15 10 12 8 8 19 9 3 3 3 3 4 3 5 6 5 3 3 3 10 1 2 4 4 5 11 10 7
27 26 21 30 24 63 63 58 47 27 15 15 21 16 19 9 12 7 5 12 23 14 3 3 5 5 2 5 4 5 5 6 4 2 3 3 2 1 2 1 7 4 11 11
28 26 23 25 21 47 61 48 47 29 13 15 25 14 14 11 11 8 9 12 7 9 4 4 4 5 1 6 7 7 6 5 9 7 5 7 6 4 3 3 2 2 11 11
26 23 21 20 17 43 61 36 55 50 17 10 23 24 20 14 15 8 14 9 4 6 8 6 5 5 6 4 5 7 9 8 5 5 5 6 13 7 5 2 2 3 8 9
26 22 22 19 24 28 14 22 40 45 28 20 21 24 21 29 32 18 23 4 15 12 5 4 4 4 5 6 5 6 6 5 4 9 5 1 18 1 11 7 3 4 6 8
25 26 23 18 16 21 27 10 34 40 16 18 15 18 25 21 21 26 12 7 11 11 8 7 3 4 5 7 6 6 7 9 3 3 7 15 11 15 15 14 14 9 10 8
24 24 25 21 16 17 28 25 23 39 17 5 15 22 24 21 21 21 20 15 18 18 11 4 3 3 9 4 0 6 3 13 9 11 12 8 16 19 18 18 21 20 18 18
23 25 24 23 20 16 18 17 20 42 31 7 9 25 19 33 20 23 18 14 16 11 7 3 4 5 4 1 1 5 12 9 8 9 7 8 12 8 11 11 12 17 19 19
21 22 23 21 18 14 12 7 13 24 30 9 4 9 27 21 24 25 21 19 16 16 7 4 5 5 7 5 7 17 23 22 26 27 21 20 24 21 18 19 17 16 17 19
18 17 18 18 18 15 16 6 5 26 26 9 3 3 10 29 25 21 20 19 10 8 9 6 6 7 10 4 12 16 20 27 28 30 25 24 28 19 9 15 12 13 14 15
17 15 13 14 13 16 18 26 13 27 25 9 5 4 7 22 14 12 17 10 13 10 10 4 6 5 6 7 13 41 34 23 21 27 25 35 26 20 24 22 20 19 20 19
20 12 10 12 15 10 21 21 22 36 9 9 6 9 6 18 13 9 9 11 6 5 5 6 8 8 10 11 26 33 32 28 39 31 30 39 32 43 32 24 24 26 22 22
17 13 8 6 7 13 13 20 9 10 6 6 3 10 5 21 14 4 8 4 4 4 8 8 7 14 25 25 33 27 24 32 33 30 33 32 33 35 35 31 30 28 30 23
15 8 8 4 11 15 11 7 6 6 5 10 7 11 11 15 10 6 4 5 5 4 5 8 6 7 14 40 44 45 49 44 42 41 41 33 30 32 28 27 28 30 28 29
14 9 7 4 2 2 5 5 3 6 8 10 10 13 18 13 11 5 5 4 4 6 9 4 5 4 25 26 32 36 41 38 38 37 39 37 35 32 28 24 22 26 26 23
15 5 4 3 4 4 5 7 4 4 9 16 22 14 11 9 4 5 4 8 6 9 5 6 4 6 15 23 31 33 23 23 23 26 28 29 29 26 27 24 23 21 22 20
5 6 6 4 4 5 5 4 2 4 10 29 38 18 5 7 4 4 5 3 5 5 6 6 6 13 22 26 26 21 20 15 16 18 18 20 21 21 20 20 19 20 21 19
6 6 6 8 3 6 5 3 3 6 30 38 20 11 7 3 4 2 5 4 7 8 4 5 7 16 17 17 22 20 17 20 19 15 14 14 16 17 16 16 17 19 19 18
5 5 3 7 3 3 2 3 4 16 31 32 14 4 5 4 6 6 8 7 8 4 6 11 9 16 16 13 11 14 14 14 14 14 13 13 13 14 15 17 18 19 18 16
5 4 8 5 4 2 6 12 13 29 31 12 4 6 6 6 5 6 6 6 4 8 6 10 11 7 6 7 9 11 14 14 14 14 14 13 12 12 16 21 22 21 18 15
Wind_Direction
231 231 225 221 225 223 217 202 217 198 177 185 207 218 195 179 164 172 144 147 158 196 177 186 198 205 250 169 186 329 90 309 283 305 355 264 306 36 16 330 8 298 309 62
243 227 225 221 218 218 205 189 186 191 180 202 207 183 195 193 157 182 170 172 185 169 189 208 195 205 136 149 227 100 147 180 292 176 173 163 279 326 27 327 274 258 317 41
243 247 227 220 218 214 201 179 180 177 198 244 223 183 194 191 194 162 153 141 143 152 196 225 181 196 170 175 169 133 186 230 259 289 323 318 278 251 286 266 271 352 259 335
256 226 236 229 216 212 195 196 213 180 186 213 207 198 188 182 176 189 167 158 197 167 172 195 213 197 175 158 175 155 238 260 255 269 278 279 270 270 271 239 260 270 61 277
263 249 227 227 237 207 200 197 183 183 168 172 198 198 200 193 170 166 192 216 193 183 183 204 187 180 201 196 159 172 189 256 287 285 260 241 265 258 259 248 255 256 268 269
263 254 222 227 220 206 198 208 210 189 179 163 171 208 204 196 164 200 191 203 150 196 218 169 89 191 151 169 172 170 216 254 294 281 281 300 261 272 209 199 217 229 233 110
261 259 251 241 219 207 203 208 207 192 199 196 198 175 194 200 198 204 184 175 183 169 172 135 92 80 104 189 170 206 181 191 243 292 307 260 69 110 132 261 264 220 211 173
250 258 256 245 229 224 217 203 200 211 214 203 200 187 184 192 188 172 170 164 167 151 128 131 153 177 188 116 65 208 227 208 229 271 283 299 175 180 193 211 289 217 215 178
241 253 264 242 243 218 208 212 205 213 220 215 192 178 175 165 177 144 128 146 152 154 119 158 200 220 201 173 137 73 175 237 249 198 259 249 55 109 162 169 266 166 189 178
246 251 258 242 251 213 210 201 198 200 222 211 181 184 181 171 171 157 137 148 162 159 151 175 189 218 288 193 181 166 155 180 219 223 254 274 237 150 167 212 44 126 182 184
239 242 251 246 238 194 209 207 206 205 205 241 203 196 168 161 176 158 145 122 169 166 184 189 179 213 201 205 146 178 178 166 191 196 223 258 164 132 227 89 124 161 192 203
236 237 244 243 244 217 233 208 214 201 188 205 226 206 203 210 198 180 169 184 155 167 166 194 148 180 176 198 211 195 208 215 185 206 220 23 184 182 204 177 171 187 211 236
237 232 233 242 246 226 228 257 191 191 177 191 210 207 206 198 197 204 160 191 163 171 149 150 155 201 173 179 218 184 220 195 242 220 221 225 228 232 240 238 235 243 238 275
238 229 228 234 239 244 225 230 216 209 180 158 215 208 214 196 195 192 198 201 175 166 156 150 158 189 203 203 188 212 167 159 203 246 254 265 254 238 248 251 252 259 258 256
235 233 232 233 235 242 223 222 245 201 195 151 164 191 183 203 201 195 181 186 177 158 160 165 196 134 167 178 188 224 187 190 198 234 225 232 274 233 247 232 247 255 258 249
234 231 228 230 229 236 219 232 231 218 200 148 150 165 194 182 189 201 189 197 206 202 173 186 198 188 208 211 234 238 225 223 225 242 253 257 265 265 256 254 255 258 259 258
227 223 220 221 221 220 203 180 162 206 201 136 99 124 183 198 191 179 181 189 196 203 208 227 207 196 196 236 234 248 232 232 230 236 247 255 250 251 284 246 248 247 248 255
210 211 214 211 214 221 242 227 272 195 182 146 137 132 150 170 170 185 212 202 208 231 231 179 203 178 212 242 212 239 243 231 233 239 231 239 254 255 256 252 250 243 243 247
222 190 191 200 220 221 237 230 233 183 162 142 165 153 155 167 156 145 161 172 180 198 225 216 187 207 220 204 222 235 239 220 237 242 240 247 251 257 256 248 245 244 243 237
192 177 171 195 210 216 200 155 194 153 159 150 154 146 135 166 158 131 125 162 204 193 208 164 228 242 238 234 245 244 241 237 241 241 241 240 241 245 249 243 242 242 252 243
180 181 193 200 165 163 187 178 201 144 166 169 161 165 137 164 163 136 178 162 172 221 183 203 227 239 218 229 237 244 249 247 245 243 248 248 248 250 249 248 243 248 246 254
175 165 145 143 285 231 202 181 158 213 166 162 150 151 137 140 151 129 172 156 176 236 142 217 244 191 232 228 232 243 251 247 246 244 244 246 244 244 244 243 244 247 252 246
160 166 128 143 201 245 223 176 185 186 162 165 149 146 128 144 128 108 145 180 205 133 207 234 236 230 230 233 241 248 244 241 250 250 246 244 243 241 241 240 238 240 237 233
158 147 175 203 221 234 230 226 262 121 162 148 149 135 139 140 160 133 153 135 154 226 236 236 234 206 242 239 238 234 240 242 248 247 241 236 233 233 233 231 231 225 220 219
169 154 190 209 217 253 255 251 188 162 157 149 141 101 113 105 103 163 117 151 234 223 235 225 207 225 228 234 239 235 240 234 237 238 235 225 218 218 217 214 210 205 206 207
173 208 210 191 182 214 232 234 202 171 165 150 121 99 133 169 151 164 199 190 223 215 221 222 216 236 239 235 232 224 228 227 227 229 219 206 209 214 212 202 196 191 189 191
188 244 239 250 117 183 217 212 200 174 170 167 128 147 169 122 178 198 202 216 197 225 230 222 218 193 158 192 200 199 203 213 206 198 191 187 189 191 187 184 178 178 181 187
Height
1472 1477 1483 1488 1493 1498 1504 1507 1510 1507 1510 1515 1512 1506 1507 1508 1510 1514 1515 1517 1518 1518 1521 1523 1522 1522 1523 1528 1528 1525 1529 1527 1520 1513 1516 1519 1517 1515 1513 1511 1511 1510 1510 1496
1455 1465 1471 1478 1483 1488 1495 1500 1503 1504 1507 1502 1503 1504 1505 1506 1508 1510 1512 1514 1516 1519 1520 1522 1521 1523 1526 1527 1528 1525 1527 1524 1517 1511 1516 1517 1514 1516 1518 1517 1516 1505 1506 1494
1446 1451 1460 1467 1474 1481 1489 1494 1496 1501 1501 1499 1494 1496 1498 1501 1504 1506 1509 1511 1515 1518 1520 1520 1521 1521 1525 1526 1527 1528 1527 1524 1521 1515 1511 1517 1514 1514 1514 1515 1509 1498 1497 1497
1440 1441 1447 1456 1464 1473 1480 1481 1476 1477 1484 1488 1491 1490 1488 1494 1500 1503 1505 1511 1509 1512 1520 1522 1519 1520 1522 1526 1526 1527 1526 1520 1521 1516 1515 1515 1513 1512 1511 1513 1503 1502 1498 1501
1433 1434 1429 1436 1452 1461 1470 1466 1468 1470 1470 1475 1483 1486 1484 1485 1492 1495 1499 1502 1503 1508 1510 1510 1513 1516 1517 1517 1524 1524 1527 1518 1522 1512 1512 1514 1510 1504 1506 1506 1505 1503 1499 1498
1427 1427 1425 1426 1434 1444 1444 1453 1455 1461 1464 1467 1472 1470 1474 1477 1483 1490 1490 1493 1500 1506 1504 1509 1512 1516 1515 1517 1518 1519 1523 1521 1519 1505 1509 1505 1495 1490 1496 1497 1496 1493 1494 1490
1420 1420 1420 1421 1421 1425 1433 1446 1455 1455 1454 1458 1455 1461 1468 1473 1476 1478 1488 1491 1494 1500 1502 1507 1512 1517 1518 1519 1520 1519 1521 1522 1523 1512 1504 1500 1492 1492 1493 1495 1492 1492 1493 1494
1411 1412 1412 1413 1413 1418 1425 1435 1445 1446 1443 1452 1457 1456 1461 1470 1475 1481 1483 1488 1492 1496 1501 1506 1509 1514 1518 1520 1522 1520 1522 1520 1517 1515 1506 1490 1486 1492 1492 1493 1485 1486 1488 1493
1402 1403 1405 1404 1406 1411 1411 1422 1431 1439 1442 1439 1445 1451 1455 1462 1467 1478 1482 1486 1489 1494 1499 1503 1501 1499 1495 1509 1517 1522 1524 1523 1519 1518 1514 1501 1487 1491 1491 1491 1488 1484 1486 1489
1393 1396 1398 1399 1400 1402 1407 1408 1420 1434 1436 1435 1439 1439 1445 1454 1460 1464 1475 1483 1490 1490 1492 1498 1500 1495 1499 1496 1499 1513 1518 1520 1515 1510 1510 1493 1482 1489 1491 1490 1486 1483 1486 1488
1386 1390 1392 1393 1396 1398 1402 1400 1411 1418 1425 1431 1434 1433 1434 1445 1450 1455 1468 1477 1484 1488 1487 1489 1493 1494 1492 1492 1490 1500 1499 1505 1508 1508 1510 1501 1482 1489 1488 1479 1480 1481 1484 1488
1380 1383 1387 1389 1390 1391 1395 1398 1402 1409 1420 1430 1434 1431 1431 1437 1442 1450 1457 1454 1463 1469 1473 1483 1486 1489 1491 1484 1481 1494 1491 1483 1485 1488 1479 1477 1477 1477 1479 1479 1481 1480 1481 1484
1372 1375 1378 1382 1382 1385 1391 1392 1392 1403 1413 1422 1426 1424 1428 1435 1437 1442 1449 1454 1456 1459 1462 1473 1475 1477 1480 1480 1479 1479 1484 1486 1485 1484 1467 1474 1477 1475 1476 1477 1478 1479 1478 1479
1366 1369 1374 1378 1381 1383 1388 1389 1391 1398 1410 1416 1420 1422 1425 1429 1434 1437 1441 1447 1451 1454 1461 1465 1468 1470 1474 1470 1469 1471 1472 1479 1476 1473 1469 1473 1470 1469 1470 1471 1472 1473 1474 1473
1361 1365 1369 1373 1378 1381 1377 1381 1387 1393 1402 1403 1413 1416 1419 1423 1431 1434 1438 1445 1448 1452 1458 1459 1462 1465 1472 1475 1474 1467 1466 1463 1465 1459 1460 1461 1460 1462 1465 1466 1467 1468 1469 1469
1356 1361 1364 1367 1369 1372 1374 1379 1381 1386 1391 1395 1407 1408 1413 1420 1425 1431 1436 1440 1446 1450 1451 1452 1456 1457 1464 1466 1454 1453 1451 1453 1454 1452 1457 1458 1456 1456 1458 1460 1461 1462 1463 1464
1352 1356 1360 1363 1366 1369 1372 1373 1374 1380 1384 1388 1403 1406 1411 1418 1423 1429 1434 1435 1442 1447 1450 1452 1453 1456 1459 1454 1443 1443 1439 1442 1445 1447 1451 1452 1447 1448 1450 1453 1454 1455 1457 1458
1350 1353 1356 1359 1363 1367 1366 1367 1368 1372 1380 1388 1397 1406 1412 1414 1419 1429 1431 1437 1443 1444 1445 1448 1448 1453 1453 1442 1434 1427 1430 1436 1438 1436 1442 1440 1442 1443 1443 1446 1447 1448 1450 1453
1346 1349 1353 1359 1363 1364 1362 1366 1370 1369 1373 1378 1385 1390 1398 1407 1415 1423 1431 1434 1440 1443 1441 1441 1443 1435 1425 1417 1421 1415 1417 1425 1422 1428 1432 1431 1434 1432 1435 1437 1439 1440 1442 1445
1343 1345 1350 1353 1353 1355 1359 1362 1360 1360 1365 1370 1371 1377 1387 1396 1408 1418 1424 1429 1432 1434 1430 1435 1428 1405 1406 1411 1406 1405 1409 1411 1415 1419 1417 1418 1421 1421 1422 1424 1427 1430 1432 1436
1337 1341 1343 1346 1347 1351 1354 1353 1354 1354 1360 1361 1368 1370 1377 1392 1398 1410 1416 1421 1424 1423 1413 1419 1399 1386 1392 1395 1394 1396 1395 1397 1399 1400 1402 1407 1410 1411 1413 1414 1416 1419 1423 1425
1336 1339 1342 1345 1346 1347 1346 1343 1345 1343 1340 1352 1353 1367 1374 1388 1398 1404 1414 1410 1419 1407 1414 1413 1385 1375 1375 1378 1379 1379 1378 1383 1386 1390 1390 1394 1398 1401 1403 1406 1408 1410 1413 1416
1335 1339 1341 1343 1345 1341 1336 1332 1333 1330 1333 1339 1344 1363 1371 1386 1391 1396 1401 1404 1401 1407 1404 1385 1368 1363 1366 1366 1366 1367 1371 1373 1376 1378 1381 1384 1387 1391 1394 1396 1398 1401 1404 1408
1332 1336 1340 1340 1337 1335 1328 1321 1317 1320 1322 1325 1336 1352 1367 1379 1383 1386 1390 1395 1398 1395 1385 1367 1356 1355 1355 1356 1360 1361 1362 1366 1370 1372 1374 1377 1380 1383 1385 1388 1391 1395 1398 1402
1327 1331 1330 1330 1327 1328 1326 1328 1326 1323 1327 1327 1339 1349 1359 1369 1376 1381 1391 1394 1383 1366 1352 1350 1344 1344 1348 1350 1353 1355 1357 1360 1364 1367 1369 1371 1374 1377 1380 1383 1386 1390 1394 1398
1324 1325 1324 1323 1325 1324 1322 1321 1320 1320 1324 1330 1333 1347 1363 1366 1364 1371 1368 1370 1359 1346 1341 1336 1339 1341 1342 1344 1346 1349 1353 1357 1360 1363 1366 1368 1371 1373 1377 1380 1384 1388 1392 1396
1319 1315 1313 1315 1316 1319 1320 1320 1321 1323 1324 1326 1334 1342 1347 1352 1354 1357 1347 1337 1335 1332 1328 1330 1336 1338 1339 1341 1342 1345 1350 1354 1358 1361 1364 1367 1369 1371 1373 1377 1383 1388 1392 1395